Terminal Aerodrome Forecast
Issued by NWS Twin Cities, MN

Home | Current Version | Previous Version | Graphics & Text | Print | Product List | Glossary On
Versions: 1 2 3 4 5 6 7 8 9 10 11 12 13 14 15 16 17 18 19
609
FTUS43 KMPX 260520
TAFEAU
TAF
KEAU 260520Z 2606/2706 VRB03KT 1/4SM FG VV001
     FM261200 22004KT 4SM BR SCT250
     FM261400 23007KT P6SM FEW250
     FM270000 VRB03KT P6SM VCSH BKN040 OVC080=

USA.gov is the U.S. government's official web portal to all federal, state and local government web resources and services.